Weather History for Lincolnton, NC

Change the Weather History Date:

Wednesday, March 19, 2014

  Actual Average (KCLT) Record (KCLT)
Temperature  
Mean Temperature 44 °F 52 °F  
Max Temperature 50 °F 64 °F 86 °F (1945)
Min Temperature 36 °F 40 °F 21 °F (1902)
Degree Days  
Heating Degree Days 22 13  
Month to date heating degree days 296  
Since 1 July heating degree days 2995  
Cooling Degree Days 0 0  
Month to date cooling degree days 0  
Year to date cooling degree days 0  
Moisture  
Dew Point 40 °F    
Average Humidity 94    
Maximum Humidity 99    
Minimum Humidity 74    
Precipitation  
Precipitation 0.00 in 0.13 in 2.65 in (1944)
Month to date precipitation 2.55  
Year to date precipitation 9.28  
Snow  
Snow 0.00 in 0.10 in 0.50 in (1947)
Month to date snowfall 0.5  
Since 1 July snowfall 4.2  
Snow Depth -    
Sea Level Pressure  
Sea Level Pressure 30.09 in    
Wind  
Wind Speed 2 mph (WSW)    
Max Wind Speed 6 mph    
Max Gust Speed -    
Visibility 6 miles    
Events Rain    
T = Trace of Precipitation, MM = Missing Value Source: NWS Daily Summary

Daily Weather History Graph

Daily Weather History Graph

Search for Another Location

Airport:

Trip Planner

Search our weather history database for the weather conditions in past years. The results will help you decide how hot, cold, wet, or windy it might be!

Date:

Astronomy

Mar. 19, 2014 Rise Set
Actual Time 7:29 AM EDT 7:35 PM EDT
Civil Twilight 7:04 AM EDT 8:00 PM EDT
Nautical Twilight 6:34 AM EDT 8:30 PM EDT
Astronomical Twilight 6:04 AM EDT 9:00 PM EDT
Moon 10:45 PM EDT (3/19) 9:01 AM EDT (3/19)
Length of Visible Light 12h 56m
Length of Day
12h 05m
Waning Gibbous, 91% of the Moon is Illuminated
Mar 19
Waning Gibbous
Mar 23
Last Quarter
Mar 30
New
Apr 7
First Quarter
Apr 15
Full

Hourly Weather History & Observations

Time (EDT) Temp. Windchill Dew Point Humidity Pressure Visibility Wind Dir Wind Speed Gust Speed Precip Events Conditions
12:15 AM 39.7 °F 37.6 °F 39.2 °F 98% 30.16 in 2.0 mi NNE 3.5 mph - N/A   Overcast
12:35 AM 39.6 °F 36.3 °F 39.2 °F 99% 30.15 in 2.0 mi ENE 4.6 mph - N/A   Overcast
12:55 AM 39.6 °F 35.4 °F 39.2 °F 99% 30.15 in 2.5 mi ENE 5.8 mph - N/A   Overcast
1:15 AM 39.2 °F 35.9 °F 38.7 °F 98% 30.15 in 7.0 mi ENE 4.6 mph - N/A   Overcast
1:35 AM 39.4 °F - 38.7 °F 97% 30.16 in 5.0 mi Calm Calm - N/A   Overcast
1:55 AM 39.6 °F - 39.2 °F 99% 30.17 in 3.0 mi Calm Calm - N/A   Overcast
2:15 AM 39.4 °F - 38.8 °F 98% 30.17 in 2.0 mi Calm Calm - N/A   Light Drizzle
2:35 AM 39.4 °F 37.2 °F 38.8 °F 98% 30.17 in 2.0 mi North 3.5 mph - N/A   Light Drizzle
2:55 AM 39.2 °F - 38.8 °F 99% 30.17 in 2.5 mi Calm Calm - N/A   Overcast
3:15 AM 39.2 °F - 38.8 °F 99% 30.16 in 2.0 mi Calm Calm - N/A   Overcast
3:35 AM 39.2 °F 37.0 °F 38.7 °F 98% 30.16 in 2.5 mi NNW 3.5 mph - N/A   Overcast
3:55 AM 39.2 °F - 38.7 °F 98% 30.16 in 2.5 mi Calm Calm - N/A   Overcast
4:15 AM 38.8 °F 36.5 °F 38.5 °F 99% 30.15 in 2.5 mi NNW 3.5 mph - N/A   Overcast
4:35 AM 38.7 °F 36.3 °F 38.3 °F 99% 30.14 in 2.5 mi North 3.5 mph - N/A   Overcast
4:55 AM 38.7 °F - 38.3 °F 99% 30.14 in 2.5 mi Calm Calm - N/A   Overcast
5:15 AM 38.7 °F - 38.3 °F 99% 30.14 in 2.5 mi Calm Calm - N/A   Overcast
5:35 AM 38.7 °F 35.2 °F 38.3 °F 99% 30.14 in 4.0 mi NNE 4.6 mph - N/A   Overcast
5:55 AM 38.5 °F - 38.3 °F 99% 30.15 in 5.0 mi Calm Calm - N/A   Overcast
6:15 AM 38.7 °F - 38.3 °F 99% 30.15 in 5.0 mi Calm Calm - N/A   Overcast
6:35 AM 38.7 °F - 38.3 °F 99% 30.15 in 2.5 mi Calm Calm - N/A Rain Rain
6:55 AM 38.7 °F - 38.3 °F 99% 30.16 in 3.0 mi Calm Calm - N/A   Overcast
7:15 AM 38.5 °F 36.1 °F 38.3 °F 99% 30.15 in 5.0 mi NE 3.5 mph - N/A   Overcast
7:35 AM 38.5 °F - 38.1 °F 99% 30.15 in 7.0 mi Calm Calm - N/A   Overcast
7:55 AM 38.5 °F 36.1 °F 38.3 °F 99% 30.15 in 3.0 mi NNE 3.5 mph - N/A   Overcast
8:15 AM 38.5 °F - 38.1 °F 99% 30.16 in 10.0 mi Calm Calm - N/A   Overcast
8:35 AM 38.7 °F 36.3 °F 38.3 °F 99% 30.16 in 10.0 mi NE 3.5 mph - N/A   Overcast
8:55 AM 39.0 °F 36.8 °F 38.3 °F 97% 30.16 in 7.0 mi NE 3.5 mph - N/A   Overcast
9:15 AM 39.2 °F 35.9 °F 38.5 °F 97% 30.15 in 3.0 mi ESE 4.6 mph - N/A   Overcast
9:35 AM 39.2 °F 37.0 °F 38.7 °F 98% 30.15 in 1.0 mi SE 3.5 mph - N/A   Overcast
9:55 AM 39.4 °F 37.2 °F 38.8 °F 98% 30.15 in 1.5 mi East 3.5 mph - N/A   Overcast
10:15 AM 39.6 °F 37.4 °F 39.2 °F 99% 30.15 in 3.0 mi SE 3.5 mph - N/A   Overcast
10:35 AM 40.3 °F - 39.6 °F 97% 30.15 in 10.0 mi Calm Calm - N/A   Overcast
10:55 AM 41.0 °F 39.0 °F 39.7 °F 95% 30.15 in 10.0 mi ENE 3.5 mph - N/A   Overcast
11:15 AM 41.4 °F - 40.1 °F 95% 30.15 in 10.0 mi Calm Calm - N/A   Overcast
11:35 AM 41.2 °F - 39.7 °F 95% 30.15 in 10.0 mi Calm Calm - N/A   Overcast
11:55 AM 41.7 °F - 40.1 °F 94% 30.15 in 7.0 mi Calm Calm - N/A   Overcast
12:15 PM 42.3 °F - 41.0 °F 95% 30.14 in 4.0 mi Calm Calm - N/A   Overcast
12:35 PM 42.1 °F 40.2 °F 40.8 °F 95% 30.13 in 2.5 mi SSW 3.5 mph - N/A   Overcast
12:55 PM 42.8 °F 41.1 °F 41.2 °F 94% 30.12 in 4.0 mi SW 3.5 mph - N/A   Overcast
1:15 PM 42.8 °F 41.1 °F 41.4 °F 95% 30.11 in 3.0 mi SW 3.5 mph - N/A   Overcast
1:35 PM 42.8 °F - 41.5 °F 95% 30.10 in 4.0 mi Calm Calm - N/A   Overcast
1:55 PM 43.2 °F 39.7 °F 41.7 °F 95% 30.09 in 7.0 mi SSW 5.8 mph - N/A   Overcast
2:15 PM 43.3 °F 40.7 °F 41.9 °F 95% 30.08 in 7.0 mi SW 4.6 mph - N/A   Overcast
2:35 PM 43.9 °F 42.3 °F 42.4 °F 95% 30.07 in 7.0 mi WSW 3.5 mph - N/A   Overcast
2:55 PM 44.4 °F 42.9 °F 42.6 °F 93% 30.06 in 7.0 mi SW 3.5 mph - N/A   Overcast
3:15 PM 45.7 °F 44.4 °F 43.2 °F 91% 30.05 in 10.0 mi SSW 3.5 mph - N/A   Overcast
3:35 PM 46.6 °F - 43.2 °F 88% 30.04 in 10.0 mi SW 5.8 mph - N/A   Overcast
3:55 PM 47.7 °F - 43.0 °F 84% 30.03 in 10.0 mi SSW 4.6 mph - N/A   Overcast
4:15 PM 48.0 °F - 43.0 °F 83% 30.02 in 10.0 mi WSW 5.8 mph - N/A   Overcast
4:35 PM 47.8 °F - 42.4 °F 82% 30.01 in 10.0 mi WSW 4.6 mph - N/A   Overcast
4:55 PM 48.2 °F - 42.6 °F 81% 30.01 in 10.0 mi SW 4.6 mph - N/A   Overcast
5:15 PM 48.4 °F - 43.0 °F 82% 30.01 in 10.0 mi Calm Calm - N/A   Overcast
5:35 PM 48.7 °F - 43.2 °F 81% 30.00 in 10.0 mi Calm Calm - N/A   Overcast
5:55 PM 49.1 °F - 43.5 °F 81% 30.00 in 10.0 mi Calm Calm - N/A   Overcast
6:15 PM 50.2 °F - 42.8 °F 76% 29.99 in 10.0 mi West 4.6 mph - N/A   Overcast
6:35 PM 50.7 °F - 42.8 °F 74% 29.99 in 10.0 mi WSW 4.6 mph - N/A   Overcast
6:55 PM 50.4 °F - 42.8 °F 75% 29.99 in 10.0 mi Calm Calm - N/A   Overcast
7:15 PM 50.0 °F - 43.0 °F 77% 29.99 in 10.0 mi Calm Calm - N/A   Overcast
7:35 PM 49.1 °F - 43.0 °F 79% 29.99 in 10.0 mi Calm Calm - N/A   Scattered Clouds
7:55 PM 48.2 °F - 43.2 °F 83% 29.98 in 10.0 mi Calm Calm - N/A   Clear
8:15 PM 47.1 °F - 43.0 °F 86% 29.98 in 10.0 mi Calm Calm - N/A   Clear
8:35 PM 45.5 °F - 43.7 °F 93% 29.98 in 10.0 mi Calm Calm - N/A   Clear
8:55 PM 42.8 °F - 41.5 °F 95% 29.99 in 10.0 mi Calm Calm - N/A   Clear
9:15 PM 42.1 °F - 41.2 °F 97% 30.00 in 7.0 mi Calm Calm - N/A   Clear
9:35 PM 40.8 °F - 40.1 °F 97% 30.00 in 1.8 mi Calm Calm - N/A   Mostly Cloudy
9:55 PM 41.5 °F - 41.0 °F 98% 30.00 in 7.0 mi Calm Calm - N/A   Overcast
10:15 PM 40.6 °F - 39.9 °F 97% 29.99 in 4.0 mi Calm Calm - N/A   Mostly Cloudy
10:35 PM 38.8 °F - 38.3 °F 98% 29.99 in 1.8 mi Calm Calm - N/A   Mist
10:55 PM 39.6 °F - 39.2 °F 99% 29.99 in 4.0 mi Calm Calm - N/A   Clear
11:15 PM 38.3 °F - 37.8 °F 98% 29.99 in 2.5 mi Calm Calm - N/A   Clear
11:35 PM 37.8 °F - 37.6 °F 99% 29.99 in 2.5 mi Calm Calm - N/A   Clear
11:55 PM 36.0 °F - 35.8 °F 99% 29.99 in 3.0 mi Calm Calm - N/A   Clear